Weather History for Galliano, LA

Change the Weather History Date:

Thursday, September 26, 2013

  Actual Average (KAXO) Record (KAXO)
Temperature  
Mean Temperature 78 °F -  
Max Temperature 90 °F 78 °F 87 °F (2007)
Min Temperature 66 °F 75 °F 62 °F (2000)
Cooling Degree Days 13    
Growing Degree Days 28 (Base 50)    
Moisture  
Dew Point 68 °F    
Average Humidity 75    
Maximum Humidity 100    
Minimum Humidity 39    
Precipitation  
Precipitation 0.00 in - - ()
Sea Level Pressure  
Sea Level Pressure 29.89 in    
Wind  
Wind Speed 2 mph (NNW)    
Max Wind Speed 9 mph    
Max Gust Speed -    
Averages and records for this station are not official NWS values.
T = Trace of Precipitation, MM = Missing Value Source: NWS Daily Summary

Daily Weather History Graph

Daily Weather History Graph

Search for Another Location

Airport:

Trip Planner

Search our weather history database for the weather conditions in past years. The results will help you decide how hot, cold, wet, or windy it might be!

Date:

Astronomy

Sep. 26, 2013 Rise Set
Actual Time 6:51 AM CDT 6:52 PM CDT
Civil Twilight 6:27 AM CDT 7:16 PM CDT
Nautical Twilight 6:00 AM CDT 7:43 PM CDT
Astronomical Twilight 5:32 AM CDT 8:11 PM CDT
Moon No Moon Rise 1:21 PM CDT (9/26)
Length of Visible Light 12h 48m
Length of Day
12h 00m
Waning Gibbous, 54% of the Moon is Illuminated
Sep 26
Waning Gibbous
Sep 26
Last Quarter
Oct 4
New
Oct 11
First Quarter
Oct 18
Full

Hourly Weather History & Observations

Time (CDT) Temp. Heat Index Dew Point Humidity Pressure Visibility Wind Dir Wind Speed Gust Speed Precip Events Conditions
12:15 AM 74.3 °F - 74.3 °F 100% 29.83 in - Calm Calm - N/A   Unknown
12:35 AM 73.8 °F - 73.8 °F 100% 29.83 in - NW 8.1 mph - N/A   Unknown
12:55 AM 74.8 °F - 74.8 °F 100% 29.83 in - Calm Calm - N/A   Unknown
1:15 AM 74.5 °F - 74.5 °F 100% 29.83 in - Calm Calm - N/A   Unknown
1:35 AM 73.8 °F - 73.8 °F 100% 29.83 in - Calm Calm - N/A   Unknown
1:55 AM 73.4 °F - 73.4 °F 100% 29.83 in - North 3.5 mph - N/A   Unknown
2:15 AM 73.8 °F - 73.8 °F 100% 29.83 in - Calm Calm - N/A   Unknown
2:35 AM 73.4 °F - 73.4 °F 100% 29.83 in - Calm Calm - N/A   Unknown
2:55 AM 72.7 °F - 72.7 °F 100% 29.83 in - Calm Calm - N/A   Unknown
3:15 AM 72.3 °F - 72.3 °F 100% 29.83 in - Calm Calm - N/A   Unknown
3:35 AM 70.7 °F - 70.7 °F 100% 29.83 in - Calm Calm - N/A   Unknown
3:55 AM 70.2 °F - 70.2 °F 100% 29.83 in - Calm Calm - N/A   Unknown
4:15 AM 69.3 °F - 69.3 °F 100% 29.84 in - Calm Calm - N/A   Unknown
4:35 AM 69.3 °F - 69.3 °F 100% 29.84 in - Calm Calm - N/A   Unknown
4:55 AM 68.9 °F - 68.9 °F 100% 29.84 in - Calm Calm - N/A   Unknown
5:15 AM 68.9 °F - 68.9 °F 100% 29.84 in - Calm Calm - N/A   Unknown
5:35 AM 68.2 °F - 68.2 °F 100% 29.85 in - Calm Calm - N/A   Unknown
5:55 AM 67.5 °F - 67.5 °F 100% 29.85 in - Calm Calm - N/A   Unknown
6:15 AM 67.3 °F - 67.3 °F 100% 29.86 in - Calm Calm - N/A   Unknown
6:35 AM 67.1 °F - 67.1 °F 100% 29.86 in - Calm Calm - N/A   Unknown
6:55 AM 66.9 °F - 66.9 °F 100% 29.87 in - Calm Calm - N/A   Unknown
7:15 AM 67.1 °F - 67.1 °F 100% 29.88 in - Calm Calm - N/A   Unknown
7:35 AM 68.2 °F - 68.2 °F 100% 29.89 in - Calm Calm - N/A   Unknown
7:55 AM 71.4 °F - 71.4 °F 100% 29.89 in - Calm Calm - N/A   Unknown
8:15 AM 75.7 °F - 75.0 °F 98% 29.90 in - Calm Calm - N/A   Unknown
8:35 AM 79.0 °F - 74.3 °F 85% 29.90 in - NNW 8.1 mph - N/A   Clear
8:55 AM 80.4 °F 85.0 °F 73.4 °F 79% 29.91 in - North 5.8 mph - N/A   Clear
9:15 AM 81.5 °F 86.1 °F 72.0 °F 73% 29.92 in - North 5.8 mph - N/A   Clear
9:35 AM 82.6 °F 86.1 °F 69.3 °F 64% 29.92 in - North 6.9 mph - N/A   Clear
9:55 AM 83.8 °F 87.3 °F 68.7 °F 60% 29.93 in - North 6.9 mph - N/A   Clear
10:15 AM 84.7 °F 87.9 °F 67.8 °F 57% 29.94 in - North 4.6 mph - N/A   Clear
10:35 AM 85.5 °F 88.5 °F 67.5 °F 55% 29.94 in - NNW 4.6 mph - N/A   Clear
10:55 AM 86.0 °F 89.4 °F 68.0 °F 55% 29.94 in - North 3.5 mph - N/A   Clear
11:15 AM 87.1 °F 88.9 °F 65.1 °F 48% 29.94 in - NNW 5.8 mph - N/A   Clear
11:35 AM 88.2 °F 90.3 °F 65.7 °F 47% 29.94 in - WNW 8.1 mph - N/A   Clear
11:55 AM 88.3 °F 89.9 °F 64.6 °F 45% 29.93 in - WNW 6.9 mph - N/A   Clear
12:15 PM 89.1 °F 89.0 °F 61.3 °F 39% 29.93 in - WNW 5.8 mph - N/A   Clear
12:35 PM 89.1 °F 89.3 °F 62.1 °F 40% 29.92 in - West 3.5 mph - N/A   Clear
12:55 PM 89.1 °F 90.0 °F 63.1 °F 42% 29.91 in - WNW 4.6 mph - N/A   Clear
1:15 PM 89.4 °F 90.2 °F 62.6 °F 41% 29.91 in - NNW 4.6 mph - N/A   Clear
1:35 PM 90.1 °F 90.6 °F 62.4 °F 39% 29.90 in - WNW 9.2 mph - N/A   Clear
1:55 PM 90.3 °F 91.5 °F 63.9 °F 41% 29.90 in - NW 6.9 mph - N/A   Clear
2:15 PM 90.5 °F 91.8 °F 63.7 °F 41% 29.89 in - Calm Calm - N/A   Clear
2:35 PM 89.8 °F 91.0 °F 63.9 °F 42% 29.89 in - Calm Calm - N/A   Clear
2:55 PM 90.3 °F 91.9 °F 64.4 °F 42% 29.88 in - NW 5.8 mph - N/A   Clear
3:15 PM 90.0 °F 91.0 °F 63.1 °F 41% 29.88 in - NW 9.2 mph - N/A   Clear
3:35 PM 90.0 °F 91.3 °F 64.0 °F 42% 29.88 in - NNW 8.1 mph - N/A   Clear
3:55 PM 89.8 °F 90.4 °F 62.8 °F 40% 29.88 in - North 8.1 mph - N/A   Clear
4:15 PM 89.2 °F 89.9 °F 63.0 °F 41% 29.87 in - NNE 5.8 mph - N/A   Clear
4:35 PM 88.9 °F 89.4 °F 62.6 °F 41% 29.87 in - North 8.1 mph - N/A   Clear
4:55 PM 88.7 °F 89.4 °F 62.8 °F 42% 29.88 in - North 8.1 mph - N/A   Clear
5:15 PM 88.0 °F 89.0 °F 63.5 °F 44% 29.88 in - North 6.9 mph - N/A   Clear
5:35 PM 87.3 °F 88.3 °F 63.3 °F 45% 29.88 in - North 8.1 mph - N/A   Clear
5:55 PM 86.2 °F 87.3 °F 64.0 °F 47% 29.88 in - North 8.1 mph - N/A   Clear
6:15 PM 85.3 °F 86.8 °F 64.9 °F 50% 29.89 in - North 5.8 mph - N/A   Clear
6:35 PM 83.7 °F 85.8 °F 65.8 °F 55% 29.89 in - NNE 3.5 mph - N/A   Clear
6:55 PM 80.6 °F 83.6 °F 69.1 °F 68% 29.89 in - Calm Calm - N/A   Clear
7:15 PM 78.3 °F - 68.9 °F 73% 29.90 in - North 3.5 mph - N/A   Clear
7:35 PM 77.7 °F - 69.3 °F 75% 29.90 in - Calm Calm - N/A   Clear
7:55 PM 77.0 °F - 69.8 °F 78% 29.90 in - Calm Calm - N/A   Clear
8:15 PM 76.1 °F - 70.0 °F 81% 29.91 in - Calm Calm - N/A   Clear
8:35 PM 74.5 °F - 70.2 °F 86% 29.91 in - Calm Calm - N/A   Unknown
8:55 PM 73.4 °F - 69.8 °F 88% 29.92 in - Calm Calm - N/A   Unknown
9:15 PM 72.9 °F - 70.7 °F 93% 29.92 in - Calm Calm - N/A   Unknown
9:35 PM 72.5 °F - 70.3 °F 93% 29.93 in - Calm Calm - N/A   Unknown
9:55 PM 72.5 °F - 70.5 °F 93% 29.93 in - Calm Calm - N/A   Unknown
10:15 PM 70.9 °F - 69.8 °F 96% 29.94 in - Calm Calm - N/A   Unknown
10:35 PM 70.7 °F - 69.8 °F 97% 29.94 in - Calm Calm - N/A   Unknown
10:55 PM 71.2 °F - 70.0 °F 96% 29.94 in - Calm Calm - N/A   Unknown
11:15 PM 71.1 °F - 70.3 °F 98% 29.94 in - Calm Calm - N/A   Unknown
11:35 PM 70.5 °F - 70.0 °F 98% 29.94 in - Calm Calm - N/A   Unknown
11:55 PM 70.0 °F - 69.4 °F 98% 29.93 in - Calm Calm - N/A   Unknown